Location: Clamart
(48.8004°N, 2.2630°E)
Time: 02:40:48
(UTC+01:00)

ISS - Visible Passes

Search period start: 30 November 2023 00:00
Search period end: 10 December 2023 00:00
Orbit: 416 x 417 km, 51.6° (Epoch: 29 November)

Date Brightness Start Highest point End Pass type
(mag) Time Alt. Az. Time Alt. Az. Time Alt. Az.
30 Nov -3.4 17:27:31 10° WNW 17:30:49 51° N 17:34:07 10° E visible
30 Nov -3.7 19:04:21 10° WNW 19:07:41 74° SSW 19:07:41 74° SSW visible
01 Dec -3.9 18:15:57 10° WNW 18:19:20 82° NNE 18:21:32 20° ESE visible
01 Dec -1.0 19:53:01 10° W 19:54:27 19° WSW 19:54:27 19° WSW visible
02 Dec -3.7 17:27:31 10° WNW 17:30:52 65° NNE 17:34:12 10° E visible
02 Dec -2.4 19:04:23 10° WNW 19:07:31 36° SSW 19:08:24 30° S visible
03 Dec -3.1 18:15:49 10° WNW 18:19:07 54° SSW 18:22:24 10° SE visible
03 Dec -0.6 19:54:14 10° WSW 19:55:15 11° SW 19:55:28 11° SW visible
04 Dec -3.6 17:27:17 10° WNW 17:30:39 78° SSW 17:34:00 10° ESE visible
04 Dec -1.0 19:04:40 10° W 19:06:58 17° SW 19:09:15 10° S visible
05 Dec -1.5 18:15:43 10° W 18:18:35 26° SW 18:21:25 10° SSE visible
06 Dec -2.2 17:26:56 10° WNW 17:30:06 39° SSW 17:33:14 10° SE visible
07 Dec -0.4 18:16:20 10° WSW 18:17:41 12° SW 18:19:01 10° SSW visible
